Ash Shahaniyah, Qatar

12:48 PM +03 on October 24, 2017 (GMT +0300)
Ash Shahaniyah

Weather History for WKQIR - March, 2013

Change the Weather History Date:

Wednesday, March 6, 2013

  Actual Average Record
Temperature  
Mean Temperature 80 °F -  
Max Temperature 95 °F - - ()
Min Temperature 66 °F - - ()
Cooling Degree Days 16    
Growing Degree Days 30 (Base 50)    
Moisture  
Dew Point 48 °F    
Average Humidity 42    
Maximum Humidity 77    
Minimum Humidity 7    
Precipitation  
Precipitation 0.00 in - - ()
Sea Level Pressure  
Sea Level Pressure 29.83 in    
Wind  
Wind Speed 8 mph ()    
Max Wind Speed 21 mph    
Max Gust Speed -    
Visibility 6.2 miles    
Events      
T = Trace of Precipitation, MM = Missing Value Source: Averaged Metar Reports

Daily Weather History Graph

Daily Weather History Graph

Search for Another Location

Airport or City:

Trip Planner

Search our weather history database for the weather conditions in past years. The results will help you decide how hot, cold, wet, or windy it might be!

Date:

Astronomy

Mar. 06, 2013 Rise Set
Actual Time 5:53 AM +03 5:39 PM +03
Civil Twilight 5:30 AM +03 6:02 PM +03
Nautical Twilight 5:03 AM +03 6:29 PM +03
Astronomical Twilight 4:37 AM +03 6:55 PM +03
Moon 1:15 AM +03 (3/6) 12:21 PM +03 (3/6)
Length of Visible Light 12h 32m
Length of Day
11h 46m
Waning Crescent, 33% of the Moon is Illuminated
Mar 6
Waning Crescent
Mar 11
New
Mar 19
First Quarter
Mar 27
Full
Apr 3
Last Quarter

Hourly Weather History & Observations

Time (+03) Temp. Dew Point Humidity Pressure Visibility Wind Dir Wind Speed Gust Speed Precip Events Conditions
12:55 AM 70.7 °F 61.2 °F 72% 29.83 in 6.2 mi ESE 6.9 mph - N/A   Clear
1:55 AM 68.9 °F 58.8 °F 70% 29.82 in 6.2 mi SE 6.9 mph - N/A   Clear
2:55 AM 67.8 °F 57.4 °F 69% 29.81 in 6.2 mi SE 6.9 mph - N/A   Clear
3:55 AM 66.0 °F 56.1 °F 70% 29.81 in 6.2 mi SE 5.8 mph - N/A   Clear
4:55 AM 68.2 °F 60.1 °F 75% 29.82 in 6.2 mi ESE 9.2 mph - N/A   Clear
5:55 AM 68.0 °F 59.7 °F 75% 29.83 in 6.2 mi ESE 6.9 mph - N/A   Clear
6:55 AM 69.1 °F 58.6 °F 69% 29.87 in 6.2 mi SE 6.9 mph - N/A   Clear
7:55 AM 74.3 °F 59.9 °F 61% 29.89 in 6.2 mi SE 8.1 mph - N/A   Partly Cloudy
8:55 AM 79.0 °F 51.1 °F 38% 29.92 in 6.2 mi SSE 8.1 mph - N/A   Clear
9:55 AM 84.9 °F 43.9 °F 24% 29.92 in 6.2 mi SSE 10.4 mph - N/A   Partly Cloudy
10:55 AM 91.2 °F 32.5 °F 12% 29.89 in 6.2 mi South 17.3 mph - N/A   Scattered Clouds
11:55 AM 93.7 °F 24.4 °F 8% 29.86 in 5.6 mi South 20.7 mph - N/A   Haze
12:55 PM 95.4 °F 25.7 °F 8% 29.83 in 6.2 mi South 17.3 mph - N/A   Partly Cloudy
1:55 PM 95.9 °F 26.2 °F 8% 29.81 in 6.2 mi SSW 15.0 mph - N/A   Partly Cloudy
2:55 PM 95.9 °F 26.2 °F 8% 29.80 in 6.2 mi SSW 15.0 mph - N/A   Partly Cloudy
3:55 PM 95.5 °F 22.8 °F 7% 29.79 in 6.2 mi SSW 11.5 mph - N/A   Clear
4:55 PM 92.5 °F 39.4 °F 16% 29.78 in 6.2 mi SSE 10.4 mph - N/A   Clear
5:05 PM 91.4 °F 41.0 °F 17% 29.76 in 6.2 mi ESE 16.1 mph - N/A   Clear
5:55 PM 85.5 °F 48.4 °F 28% 29.78 in 6.2 mi East 11.5 mph - N/A   Clear
6:55 PM 80.6 °F 52.5 °F 38% 29.79 in 6.2 mi ESE 9.2 mph - N/A   Clear
7:55 PM 77.9 °F 54.9 °F 45% 29.81 in 6.2 mi Calm Calm - N/A   Clear
8:55 PM 77.2 °F 52.9 °F 43% 29.84 in 6.2 mi West 9.2 mph - N/A   Clear
9:55 PM 75.7 °F 53.2 °F 45% 29.86 in 6.2 mi NW 12.7 mph - N/A   Clear
10:55 PM 73.4 °F 61.2 °F 65% 29.86 in 6.2 mi Calm Calm - N/A   Clear
11:55 PM 72.1 °F 64.6 °F 77% 29.87 in 6.2 mi ENE 13.8 mph - N/A   Clear